Regional Weather Roundup
Issued by NWS San Diego, CA

Home | Current Version | Previous Version | Text Only | Print | Product List | Glossary On
Versions: 1 2 3 4 5 6 7 8 9 10 11 12 13 14 15 16 17 18 19 20 21 22 23 24 25 26 27 28 29 30 31 32 33 34 35 36 37 38 39 40 41 42 43 44 45 46 47 48 49 50
000
ASUS46 KSGX 231711
RWRSGX

SAN DIEGO HOURLY WEATHER ROUNDUP
NATIONAL WEATHER SERVICE SAN DIEGO CA
1000 AM PDT THU MAR 23 2017

NOTE: "FAIR" INDICATES FEW OR NO CLOUDS BELOW 12,000 FEET WITH NO
SIGNIFICANT WEATHER AND/OR OBSTRUCTIONS TO VISIBILITY.

CAZ042-043-060-061-PZZ750-775-231800-

GREATER SAN DIEGO AREA

CITY           SKY/WX    TMP DP  RH WIND       PRES   REMARKS
SAN DIEGO AP   PTSUNNY   62  47  57 W12       30.14R
NATIONAL CITY    N/A     61  51  70 W1        30.14R
CHULA VISTA      N/A     61  52  71 W12       30.05R
IMPERIAL BEACH PTSUNNY   62  48  60 W13       30.14R
BROWN FIELD    PTSUNNY   60  50  69 W8        30.13R
MIRAMAR MCAS   PTSUNNY   63  49  60 W10       30.12R
MONTGOMERY FLD PTSUNNY   58  47  66 W9        30.12R

$$

NORTH SAN DIEGO COUNTY

CITY           SKY/WX    TMP DP  RH WIND       PRES   REMARKS
CAMP PENDLETON MOSUNNY   61  48  62 VRB5      30.10R
OCEANSIDE AP   SUNNY     63  48  58 W10       30.10R
OCEANSIDE HBR    N/A     60  49  67 NW3       30.13R
VISTA            N/A     58  50  77 CALM      30.08R
CARLSBAD       MOSUNNY   60  48  64 VRB7      30.10R
DEL MAR          N/A     60  53  76 W1        30.14R
LA JOLLA SCRIP   N/A     58  51  76 W9        30.13R
FALLBROOK        N/A     58  55  87 CALM      30.07R
ESCONDIDO        N/A     59  50  71 W6        30.12R
SAN MARCOS       N/A     58  49  72 NW8       30.12R
POWAY            N/A     58  53  82 CALM      30.13R

$$

EAST SAN DIEGO COUNTY

CITY           SKY/WX    TMP DP  RH WIND       PRES   REMARKS
RAMONA         MOSUNNY   56  50  80 SW6       30.10R
SANTEE LAKES     N/A     58  51  78 SW6       30.11R
LA MESA          N/A     57  50  78 W3        30.05R
JAMUL            N/A     56  49  77 CALM      30.12R
DESCANSO N       N/A     43  41  95 W5        30.06R
CAMPO            N/A     50  43  77 W15G25    30.05R

$$

ORANGE COUNTY AND THE LOS ANGELES BASIN

CITY           SKY/WX    TMP DP  RH WIND       PRES   REMARKS
JOHN WAYNE AP    N/A     61  41  47 NW5       30.09R
LAGUNA BEACH     N/A     60  45  58 SW5       30.05
LAKE FOREST FR   N/A     58  44  59 SW3       29.99R
HUNTINGTON BCH   N/A     64  46  51 N1        30.11R
LOS ALAMITOS   SUNNY     61  44  53 VRB5      30.09R
FULLERTON      SUNNY     62  43  49 NW5       30.08R
LONG BEACH     SUNNY     63  35  35 NW17      30.09R
L.A. AP        MOSUNNY   63  38  39 W15G21    30.10R
L.A. DOWNTOWN  SUNNY     64  39  39 VRB3      30.08R

$$

THE INLAND EMPIRE

CITY           SKY/WX    TMP DP  RH WIND       PRES   REMARKS
CORONA         SUNNY     58  46  64 N3        30.10R
CHINO          MOSUNNY   58  47  66 CALM      30.10R
ONTARIO        MOSUNNY   56  46  69 CALM      30.08R
SAN BERNARDINO MOSUNNY   59  45  58 SW7       30.09R
RIVERSIDE AP   MOSUNNY   58  47  66 W5        30.09R
MORENO VALLEY    N/A     55  51  83 SE2       28.19R
MARCH ARB      SUNNY     55  46  72 SE5       30.08R
HORSETHIEF CYN   N/A     57  40  53 CALM      30.09R
PERRIS           N/A     53  48  83 S3        30.10S
HEMET EAST       N/A     53  42  65 CALM      30.13R
FRENCH VALLEY  FAIR      55  45  67 S6        30.09R
TEMECULA         N/A     57  50  78 S5        30.13R

$$

SAN BERNARDINO AND RIVERSIDE COUNTY MOUNTAINS

CITY           SKY/WX    TMP DP  RH WIND       PRES   REMARKS
BIG BEAR AP    SUNNY     32  25  74 SW5       30.04R WCI  27
ANGELUS OAKS     N/A     37  30  75 CALM      30.04R
PINE COVE        N/A     32  32  99 N9        30.09R WCI  24

$$

SOUTHERN DESERT INCLUDING THE COACHELLA VALLEY

CITY           SKY/WX    TMP DP  RH WIND       PRES   REMARKS
PALM SPRINGS   SUNNY     68  34  28 CALM      30.00R
PALM DESERT      N/A     68  38  33 NE2       29.79S
THERMAL        SUNNY     69  37  30 N12       29.98R
BLYTHE         SUNNY     66  36  32 W17       29.98R
IMPERIAL AP    SUNNY     66  39  37 W17G23    30.02R
EL CENTRO NAS  MOSUNNY   67  35  30 W22G30    30.04R
YUMA AZ        SUNNY     65  40  39 W17G32    30.01
MEXICALI       SUNNY     64  34  32 W17       30.03R

$$

UPPER DESERT

CITY           SKY/WX    TMP DP  RH WIND       PRES   REMARKS
VICTORVILLE AP SUNNY     48  30  49 W20G26    30.07R
HESPERIA         N/A     50  33  51 N12       30.21R
PALMDALE       SUNNY     51  36  56 W17       30.11R
LANCASTER      SUNNY     51  36  56 W20       30.11R
EDWARDS AFB    MOSUNNY   54  32  43 W16       30.06R
DAGGETT        SUNNY     56  32  40 W29G35    30.04R
29 PALMS N     MOSUNNY   57  29  34 W30G41    30.07R
NEEDLES        SUNNY     67  34  29 W15G21    29.93R

$$

REGIONAL REPORTS

CITY           SKY/WX    TMP DP  RH WIND       PRES   REMARKS
SANTA BARBARA  SUNNY     60  39  45 N7        30.12R
SANDBERG       FOG       37  36  96 N14G31    30.14R VSB 1/4 WCI  28
LAS VEGAS NV   PTSUNNY   61  32  33 NW16G28   29.90R
PHOENIX AZ     PTSUNNY   61  46  57 S9G18     29.96R
TIJUANA        PTSUNNY   59  46  63 NW7       30.15R
ENSENADA NW      N/A     60  32  35 W3        30.14R

$$

OFFSHORE ISLANDS

CITY           SKY/WX    TMP DP  RH WIND       PRES   REMARKS
CATALINA ARPT  PTSUNNY   52  46  80 NW14G21   30.11R
SAN CLEMENTE I MOSUNNY   59  46  62 NW24G31   30.15R
SAN NICOLAS IS MOSUNNY   55  44  66 NW28G39   30.16R

$$

MARINE AND OFFSHORE BUOY REPORTS

STATION/POSITION SKY/WX   TEMP    WIND        PRES    VSBY  SWELL
                          AIR SEA DIR/SP/G                  HT/PER/DIR
                          (F)     (DEG/KT/KT) (MB)    (MI)  (FT/S/D)
TANNER BANKS               56 59  320/ 23/ 29 1021.9R         5/320/12
S CLEMENTE BASIN           57 59  290/ 19/ 23 1020.2R         7/100/17
SAN NICOLAS IS.               56                N/A           5/270/13
SO. S. ROSA ISLA           55 56  320/ 21/ 27 1021.9R         8/290/11
W. S. BARBARA CH           54 57  340/ 17/ 21 1022.4R         7/280/11
M. S. BARBARA CH                                N/A           7/280/11
S. MONICA BASIN            56 58  300/ 19/ 23 1020.0R         5/280/11
S PEDRO CHANNEL               59                N/A           3/270/12
CMP PENDLETON NS              60                N/A           3/210/18
OCEANSIDE OFFSHR              61                N/A           3/180/18
TORREY PINES OTR              61                N/A           3/260/11
POINT LOMA SOUTH              62                N/A           5/270/11

$$




USA.gov is the U.S. government's official web portal to all federal, state and local government web resources and services.